Regional Weather Roundup
Issued by NWS Sioux Falls, SD

Home | Current Version | Previous Version | Graphics & Text | Print | Product List | Glossary On
Versions: 1 2 3 4 5 6 7 8 9 10 11 12 13 14 15 16 17 18 19 20 21 22 23 24 25 26 27 28 29 30 31 32 33 34 35 36 37 38 39 40 41 42 43 44 45 46 47 48 49 50
000
ASUS43 KFSD 221002
RWRFSD

WEATHER ROUNDUP FOR SE SOUTH DAKOTA/SW MINNESOTA/NW IOWA
NATIONAL WEATHER SERVICE SIOUX FALLS SD
500 AM CDT SUN OCT 22 2017

NOTE: "FAIR" INDICATES FEW OR NO CLOUDS BELOW 12,000 FEET WITH NO
SIGNIFICANT WEATHER AND OR OBSTRUCTIONS TO VISIBILITY.


SDZ038>040-050-052>070-221100-
SOUTHEAST SOUTH DAKOTA

CITY           SKY/WX    TMP DP  RH WIND       PRES   REMARKS
BROOKINGS      CLEAR     39  34  82 W6        29.95R
CHAMBERLAIN    CLEAR     37  31  79 SW3       30.00S
HURON          CLEAR     38  32  79 SW7       29.97R
MADISON        FAIR      39  37  93 W10       29.96S
MITCHELL       CLEAR     41  32  70 W13       29.99R
SIOUX FALLS    CLEAR     41  36  82 W3        29.98R
WINNER         FAIR      40  27  59 SW6       30.01F
YANKTON        CLEAR     36  33  89 CALM      30.00S
$$

MNZ071-072-080-081-089-090-097-098-221100-
SOUTHWEST MINNESOTA

CITY           SKY/WX    TMP DP  RH WIND       PRES   REMARKS
FAIRMONT       CLOUDY    47  40  76 W9        29.96R
JACKSON        CLOUDY    43  37  81 W6        29.97R
LUVERNE        CLEAR     36  32  87 CALM      29.98S
MARSHALL       CLOUDY    45  37  73 W12       29.94R
MONTEVIDEO     CLOUDY    43  36  75 W5        29.93R
PIPESTONE      CLEAR     36  34  93 CALM      29.96S
REDWOOD FALLS  CLOUDY    47  38  71 W10       29.94R
TRACY          CLOUDY    45  39  80 SW9       29.95S
WORTHINGTON    CLOUDY    41  37  86 SW8       29.97S
$$

IAZ001>003-012>014-020>022-031-032-NEZ013-014-SDZ071-221100-
NORTHWEST IOWA

CITY           SKY/WX    TMP DP  RH WIND       PRES   REMARKS
CHEROKEE       CLOUDY    41  40  97 CALM      29.99S
DENISON        CLOUDY    46  41  81 CALM      30.02R
ESTHERVILLE    CLOUDY    44  41  89 W6        29.96S
LE MARS        CLOUDY    39  37  93 CALM      30.00R
ORANGE CITY    CLOUDY    39  37  93 CALM      29.98S
SHELDON        CLOUDY    36  34  93 CALM      29.97S
SIOUX CITY     CLOUDY    38  36  92 CALM      30.01R
SPENCER        CLOUDY    42  39  89 NW5       29.98R
STORM LAKE     CLOUDY    45  39  81 W9        29.98S
$$

ABBREVIATIONS USED IN REMARKS
   TC - TEMPERATURE IN CELSIUS
  WCI - WIND CHILL INDEX
   HX - HEAT INDEX
  VSB - VISIBILITY





USA.gov is the U.S. government's official web portal to all federal, state and local government web resources and services.